Weather History for Portland Troutdale, OR

Change the Weather History Date:

Friday, October 5, 2012

  Actual Average Record
Temperature  
Mean Temperature 64 °F 57 °F  
Max Temperature 72 °F 69 °F 85 °F (2014)
Min Temperature 55 °F 46 °F 37 °F (1972)
Degree Days  
Heating Degree Days 1 8  
Month to date heating degree days 25 37  
Cooling Degree Days 0 0  
Month to date cooling degree days 0 0  
Growing Degree Days 13 (Base 50)    
Moisture  
Dew Point 26 °F    
Average Humidity 25    
Maximum Humidity 35    
Minimum Humidity 15    
Precipitation  
Precipitation 0.00 in 0.09 in 0.95 in (1950)
Month to date precipitation 0.00 0.42  
Year to date precipitation 29.02 28.99  
Snow  
Snow 0.00 in - - ()
Month to date snowfall 0.0  
Snow Depth 0.00 in    
Sea Level Pressure  
Sea Level Pressure 30.17 in    
Wind  
Wind Speed 16 mph (East)    
Max Wind Speed 28 mph    
Max Gust Speed 37 mph    
Visibility 10 miles    
Events      
T = Trace of Precipitation, MM = Missing Value Source: NWS Daily Summary

Daily Weather History Graph

Daily Weather History Graph

Search for Another Location

Airport:

Trip Planner

Search our weather history database for the weather conditions in past years. The results will help you decide how hot, cold, wet, or windy it might be!

Date:

Astronomy

Oct. 05, 2012 Rise Set
Actual Time 7:13 AM PDT 6:41 PM PDT
Civil Twilight 6:44 AM PDT 7:10 PM PDT
Nautical Twilight 6:09 AM PDT 7:45 PM PDT
Astronomical Twilight 5:35 AM PDT 8:19 PM PDT
Moon 9:55 PM PDT (10/5) 12:39 PM PDT (10/5)
Length of Visible Light 12h 26m
Length of Day
11h 27m
Waning Gibbous, 73% of the Moon is Illuminated
Oct 5
Waning Gibbous
Oct 8
Last Quarter
Oct 15
New
Oct 21
First Quarter
Oct 29
Full

Hourly Weather History & Observations

Time (PDT) Temp. Dew Point Humidity Pressure Visibility Wind Dir Wind Speed Gust Speed Precip Events Conditions
12:53 AM 57.9 °F 28.0 °F 32% 30.19 in 10.0 mi East 11.5 mph - N/A   Clear
1:53 AM 57.9 °F 28.0 °F 32% 30.19 in 10.0 mi East 17.3 mph 24.2 mph N/A   Clear
2:53 AM 57.0 °F 28.9 °F 34% 30.18 in 10.0 mi East 15.0 mph - N/A   Clear
3:53 AM 57.0 °F 28.0 °F 33% 30.18 in 10.0 mi East 13.8 mph - N/A   Clear
4:53 AM 55.9 °F 28.9 °F 36% 30.18 in 10.0 mi East 13.8 mph 23.0 mph N/A   Clear
5:53 AM 55.9 °F 28.0 °F 34% 30.18 in 10.0 mi East 17.3 mph - N/A   Clear
6:53 AM 55.9 °F 28.0 °F 34% 30.18 in 10.0 mi East 19.6 mph 26.5 mph N/A   Clear
7:53 AM 55.9 °F 28.0 °F 34% 30.19 in 10.0 mi East 17.3 mph 29.9 mph N/A   Clear
8:53 AM 57.9 °F 28.0 °F 32% 30.20 in 10.0 mi East 20.7 mph 27.6 mph N/A   Clear
9:53 AM 61.0 °F 28.9 °F 30% 30.20 in 10.0 mi East 20.7 mph 25.3 mph N/A   Clear
10:53 AM 64.0 °F 28.9 °F 27% 30.20 in 10.0 mi ESE 18.4 mph 26.5 mph N/A   Clear
11:53 AM 68.0 °F 25.0 °F 20% 30.19 in 10.0 mi East 18.4 mph 34.5 mph N/A   Clear
12:53 PM 70.0 °F 21.9 °F 16% 30.17 in 10.0 mi East 17.3 mph 33.4 mph N/A   Clear
1:53 PM 70.0 °F 19.9 °F 15% 30.15 in 10.0 mi ENE 21.9 mph 36.8 mph N/A   Clear
2:53 PM 71.1 °F 21.0 °F 15% 30.13 in 10.0 mi East 17.3 mph 27.6 mph N/A   Clear
3:53 PM 71.1 °F 21.0 °F 15% 30.13 in 10.0 mi East 17.3 mph 26.5 mph N/A   Clear
4:53 PM 70.0 °F 19.9 °F 15% 30.13 in 10.0 mi East 18.4 mph 28.8 mph N/A   Clear
5:53 PM 68.0 °F 21.0 °F 17% 30.13 in 10.0 mi East 12.7 mph 20.7 mph N/A   Clear
6:53 PM 64.9 °F 23.0 °F 20% 30.13 in 10.0 mi East 11.5 mph 20.7 mph N/A   Clear
7:53 PM 63.0 °F 26.1 °F 25% 30.14 in 10.0 mi East 12.7 mph 19.6 mph N/A   Clear
8:53 PM 61.0 °F 28.0 °F 29% 30.15 in 10.0 mi East 11.5 mph - N/A   Clear
9:53 PM 61.0 °F 28.9 °F 30% 30.15 in 10.0 mi East 10.4 mph 18.4 mph N/A   Clear
10:53 PM 60.1 °F 28.0 °F 30% 30.16 in 10.0 mi ESE 12.7 mph - N/A   Clear
11:53 PM 60.1 °F 28.0 °F 30% 30.16 in 10.0 mi ESE 13.8 mph - N/A   Clear